Tracking 31027 objects as of 19-Jul-2025
HD Live streaming from Space Station
objects crossing your sky now

OSCAR 30 DEB

Track OSCAR 30 DEB now!
10-day predictions


NORAD ID: 21878
Int'l Code: 1985-066H
Perigee: 963.6 km
Apogee: 1,186.4 km
Inclination: 90.2 °
Period: 106.6 minutes
Semi major axis: 7446 km
RCS: 0.311 m2 (medium)
Launch date: August 3, 1985
Source: United States (US)
Launch site: AIR FORCE WESTERN TEST RANGE (AFWTR)

Note: This is SATELLITE DEBRIS
Your satellite tracking list
FENGYUN 1C DEB
Track 1 satellite(s)




NASA's NSSDC Master Catalog

Two Line Element Set (TLE):
1 21878U 85066H   25199.62433119  .00000500  00000-0  70578-3 0  9991
2 21878  90.1649  64.3831 0149614  60.0147 318.6510 13.51191237953706
Source of the keplerian elements: AFSPC